METEOR-M2 3

Last updated on Tue Oct 14 2025 00:02:22 GMT+0000 (Coordinated Universal Time)

1 57166U 23091A 25286.61619543 .00000020 00000+0 27867-4 0 9993 2 57166 98.6470 341.1772 0004435 153.3115 206.8293 14.24015321119421
UTC large
Height (km)
Speed (km/s)
/
Latitude / Longitude
Inclination (degrees)
Orbital Period (minutes)
Azimuth
Elevation
Range (km)
Doppler Factor

Next 0 passes for location: London (51.5072 / 0.1276)

Sorry there are no passes over London.